Flag for Germany Weather past 2 weeks in Geldern, North Rhine-Westphalia, Germany

Now
54 °F

Light rain. Fog.


Feels Like: 52 °F
Forecast: 44 / 60 °F
Wind: 6 mph from West

Location: Niederrhein

Current Time: May 25, 2015 at 7:48:27 AM

Latest Report: May 25, 2015 at 6:50 AM


Visibility: 2 mi

Pressure: 30.01 "Hg

Humidity: 94%

Dew point: 52 °F

Location of GeldernLocation

Historic Weather in Geldern — Graph

°F

Geldern temperature yesterday

Maximum temperature yesterday: 68 °F (at 4:20 PM)
Minimum temperature yesterday: 45 °F (at 4:20 AM)
Average temperature yesterday: 58 °F

Past Weeks' High & Low Weather Summary

 TemperatureHumidityPressure
High81 °F (May 11, 4:50 PM)100% (May 21, 4:50 AM)30.36 "Hg (May 21, 4:50 AM)
Low39 °F (May 14, 5:20 AM)30% (May 11, 4:50 PM)29.65 "Hg (May 18, 5:50 PM)
Average57 °F63%30.08 "Hg
* Reported May 10 6:20 AM — May 25 6:20 AM, Geldern, Weather by CustomWeather, © 2015

Note: Actual official high and low records may vary slightly from our data, if they occured in-between our weather recording intervals... More about our weather records

Advertising

Geldern weather history for previous 24 hours

 ConditionsComfort  
Time TempWeatherWind HumidityBarometerVisibility
6:20 AM
Mon, May 25
52 °FLight rain. Fog.5 mph100%30.01 "Hg2 mi
5:50 AM54 °FPassing clouds.5 mph88%30.01 "Hg4 mi
5:20 AM54 °FPassing clouds.3 mph88%30.01 "HgN/A
4:50 AM52 °FPassing clouds.3 mph94%30.01 "HgN/A
4:20 AM52 °FPassing clouds.3 mph88%30.01 "HgN/A
11:50 PM
Sun, May 24
54 °FClear.No wind54%30.04 "Hg10 mi
11:20 PM55 °FSunny.2 mph47%30.04 "Hg10 mi
10:50 PM57 °FSunny.3 mph44%30.04 "Hg10 mi
10:20 PM59 °FSunny.5 mph39%30.04 "Hg10 mi
9:50 PM61 °FSunny.3 mph39%30.04 "Hg10 mi
9:20 PM61 °FPassing clouds.5 mph42%30.04 "HgN/A
8:50 PM64 °FPassing clouds.6 mph37%30.04 "HgN/A
8:20 PM66 °FPassing clouds.7 mph43%30.04 "HgN/A
7:50 PM68 °FPassing clouds.6 mph40%30.04 "HgN/A
7:20 PM68 °FPassing clouds.6 mph40%30.04 "HgN/A
6:50 PM68 °FSunny.5 mph40%30.04 "Hg10 mi
6:20 PM68 °FSunny.7 mph40%30.04 "Hg10 mi
5:50 PM68 °FSunny.2 mph43%30.04 "Hg10 mi
5:20 PM68 °FPassing clouds.6 mph43%30.07 "HgN/A
4:50 PM68 °FSunny.6 mph43%30.07 "Hg10 mi
4:20 PM68 °FSunny.6 mph43%30.07 "Hg10 mi
3:50 PM66 °FSunny.2 mph46%30.09 "Hg10 mi
3:20 PM64 °FScattered clouds.3 mph52%30.09 "HgN/A
2:50 PM66 °FSunny.3 mph46%30.09 "Hg10 mi
2:20 PM64 °FSunny.3 mph52%30.09 "Hg10 mi
1:50 PM63 °FSunny.6 mph52%30.09 "Hg10 mi
1:20 PM61 °FSunny.3 mph52%30.12 "Hg10 mi
12:50 PM63 °FScattered clouds.3 mph52%30.12 "HgN/A
12:20 PM59 °FScattered clouds.3 mph59%30.12 "HgN/A
11:50 AM59 °FSunny.2 mph59%30.12 "Hg10 mi
11:20 AM59 °FSunny.2 mph59%30.12 "Hg10 mi
10:50 AM59 °FSunny.3 mph63%30.12 "Hg10 mi
10:20 AM57 °FSunny.1 mph63%30.15 "Hg10 mi
9:50 AM54 °FSunny.No wind72%30.15 "Hg10 mi
9:20 AM54 °FSunny.2 mph77%30.15 "Hg10 mi
8:50 AM50 °FSunny.1 mph76%30.15 "Hg10 mi
8:20 AM48 °FSunny.2 mph82%30.15 "Hg10 mi
7:50 AM46 °FSunny.2 mph87%30.15 "Hg10 mi
7:20 AM45 °FPassing clouds.2 mph87%30.15 "HgN/A
Weather by CustomWeather, © 2015

See weather overviewHow to use our weather pages